Charlevoix, MI

3:30 PM EST on January 22, 2018 (GMT -0500)
Charlevoix Municipal

Weather History for KCVX - February, 2014

Change the Weather History Date:

Thursday, February 20, 2014

  Actual Average Record
Temperature  
Mean Temperature 32 °F -  
Max Temperature 41 °F 33 °F 50 °F (2017)
Min Temperature 24 °F 22 °F -20 °F (2015)
Degree Days  
Heating Degree Days 32    
Moisture  
Dew Point 25 °F    
Average Humidity 72    
Maximum Humidity 90    
Minimum Humidity 47    
Precipitation  
Precipitation 0.00 in - - ()
Sea Level Pressure  
Sea Level Pressure 29.76 in    
Wind  
Wind Speed 10 mph (ESE)    
Max Wind Speed 29 mph    
Max Gust Speed 37 mph    
Visibility 10 miles    
Events Rain , Snow    
Averages and records for this station are not official NWS values.
T = Trace of Precipitation, MM = Missing Value Source: NWS Daily Summary

Daily Weather History Graph

Daily Weather History Graph

Search for Another Location

Airport or City:

Trip Planner

Search our weather history database for the weather conditions in past years. The results will help you decide how hot, cold, wet, or windy it might be!

Date:

Astronomy

Feb. 20, 2014 Rise Set
Actual Time 7:34 AM EST 6:15 PM EST
Civil Twilight 7:04 AM EST 6:45 PM EST
Nautical Twilight 6:30 AM EST 7:20 PM EST
Astronomical Twilight 5:56 AM EST 7:54 PM EST
Moon No Moon Rise 10:00 AM EST (2/20)
Length of Visible Light 11h 41m
Length of Day
10h 41m
Waning Gibbous, 71% of the Moon is Illuminated
Feb 20
Waning Gibbous
Feb 22
Last Quarter
Mar 1
New
Mar 8
First Quarter
Mar 16
Full

Hourly Weather History & Observations

Time (EST) Temp. Windchill Dew Point Humidity Pressure Visibility Wind Dir Wind Speed Gust Speed Precip Events Conditions
12:15 AM 32.2 °F 24.4 °F 20.8 °F 63% 29.92 in 10.0 mi South 9.2 mph - N/A   Clear
12:34 AM 32.0 °F 24.2 °F 21.2 °F 64% 29.93 in 10.0 mi South 9.2 mph - N/A   Clear
12:54 AM 32.0 °F 24.2 °F 21.0 °F 64% 29.94 in 10.0 mi SSW 9.2 mph - N/A   Clear
1:15 AM 32.0 °F 24.2 °F 21.2 °F 64% 29.95 in 10.0 mi South 9.2 mph - N/A   Clear
1:34 AM 32.0 °F 23.6 °F 21.2 °F 64% 29.96 in 10.0 mi SSW 10.4 mph - N/A   Clear
1:55 AM 32.0 °F 24.2 °F 21.2 °F 64% 29.96 in 10.0 mi South 9.2 mph - N/A   Clear
2:15 AM 32.0 °F 24.8 °F 21.4 °F 65% 29.97 in 10.0 mi South 8.1 mph - N/A   Clear
2:34 AM 32.0 °F 27.5 °F 21.4 °F 65% 29.97 in 10.0 mi South 4.6 mph - N/A   Clear
2:55 AM 32.0 °F 27.5 °F 21.6 °F 65% 29.97 in 10.0 mi South 4.6 mph - N/A   Clear
3:15 AM 29.5 °F 24.5 °F 20.3 °F 69% 29.98 in 10.0 mi SE 4.6 mph - N/A   Clear
3:34 AM 28.4 °F 23.3 °F 20.5 °F 72% 29.97 in 10.0 mi SE 4.6 mph - N/A   Clear
3:55 AM 27.1 °F 21.8 °F 20.3 °F 75% 29.97 in 10.0 mi ESE 4.6 mph - N/A   Clear
4:15 AM 25.3 °F 19.7 °F 19.9 °F 80% 29.96 in 10.0 mi ESE 4.6 mph - N/A   Clear
4:34 AM 27.3 °F 22.0 °F 20.8 °F 77% 29.96 in 10.0 mi SE 4.6 mph - N/A   Clear
4:55 AM 27.9 °F 22.6 °F 21.0 °F 75% 29.95 in 10.0 mi SE 4.6 mph - N/A   Clear
5:14 AM 27.5 °F 22.2 °F 20.8 °F 76% 29.95 in 10.0 mi ESE 4.6 mph - N/A   Clear
5:34 AM 26.6 °F 21.2 °F 20.1 °F 77% 29.95 in 10.0 mi ESE 4.6 mph - N/A   Clear
5:55 AM 25.2 °F 18.3 °F 19.6 °F 79% 29.95 in 10.0 mi ESE 5.8 mph - N/A   Clear
6:14 AM 24.1 °F 17.0 °F 19.0 °F 81% 29.94 in 10.0 mi ESE 5.8 mph - N/A   Clear
6:34 AM 25.5 °F 19.9 °F 20.3 °F 81% 29.93 in 10.0 mi ESE 4.6 mph - N/A   Clear
6:55 AM 27.7 °F 23.8 °F 20.8 °F 75% 29.92 in 10.0 mi ESE 3.5 mph - N/A   Clear
7:14 AM 24.6 °F 18.8 °F 19.6 °F 81% 29.91 in 10.0 mi ESE 4.6 mph - N/A   Clear
7:34 AM 26.4 °F 20.9 °F 20.3 °F 78% 29.91 in 10.0 mi ESE 4.6 mph - N/A   Clear
7:55 AM 27.0 °F 21.6 °F 20.7 °F 77% 29.91 in 10.0 mi SE 4.6 mph - N/A   Clear
8:14 AM 29.7 °F 23.7 °F 21.2 °F 71% 29.91 in 10.0 mi ESE 5.8 mph - N/A   Clear
8:35 AM 30.2 °F 24.3 °F 21.2 °F 69% 29.91 in 10.0 mi ESE 5.8 mph - N/A   Mostly Cloudy
8:55 AM 30.9 °F 26.2 °F 20.8 °F 66% 29.91 in 10.0 mi ESE 4.6 mph - N/A   Overcast
9:14 AM 31.1 °F 26.4 °F 21.2 °F 67% 29.90 in 10.0 mi ESE 4.6 mph - N/A   Overcast
9:35 AM 32.0 °F 24.8 °F 21.0 °F 64% 29.90 in 10.0 mi ESE 8.1 mph - N/A   Overcast
9:55 AM 32.9 °F 25.9 °F 20.3 °F 60% 29.89 in 10.0 mi ESE 8.1 mph - N/A   Overcast
10:14 AM 33.1 °F 26.1 °F 20.7 °F 60% 29.89 in 10.0 mi ESE 8.1 mph - N/A   Overcast
10:35 AM 34.0 °F 28.8 °F 20.5 °F 58% 29.88 in 10.0 mi ESE 5.8 mph - N/A   Overcast
10:55 AM 35.4 °F 30.5 °F 20.1 °F 54% 29.87 in 10.0 mi ESE 5.8 mph - N/A   Overcast
11:14 AM 36.5 °F 33.9 °F 19.9 °F 51% 29.88 in 10.0 mi SE 3.5 mph - N/A   Overcast
11:35 AM 38.1 °F - 19.4 °F 47% 29.87 in 10.0 mi Calm Calm - N/A   Overcast
11:54 AM 38.8 °F 34.6 °F 20.3 °F 47% 29.87 in 10.0 mi ESE 5.8 mph - N/A   Overcast
12:14 PM 40.1 °F 35.3 °F 25.7 °F 56% 29.86 in 10.0 mi SE 6.9 mph - N/A   Overcast
12:35 PM 39.4 °F 31.8 °F 26.8 °F 61% 29.85 in 10.0 mi SE 12.7 mph 18.4 mph N/A   Overcast
12:54 PM 39.2 °F 31.6 °F 28.4 °F 65% 29.84 in 10.0 mi ESE 12.7 mph 20.7 mph N/A   Overcast
1:15 PM 39.6 °F 34.0 °F 28.9 °F 66% 29.81 in 10.0 mi ESE 8.1 mph 16.1 mph N/A   Scattered Clouds
1:35 PM 39.4 °F 32.3 °F 28.9 °F 66% 29.80 in 10.0 mi East 11.5 mph - N/A   Mostly Cloudy
1:54 PM 38.5 °F 31.1 °F 29.3 °F 70% 29.78 in 10.0 mi East 11.5 mph - N/A   Overcast
2:15 PM 39.6 °F 32.5 °F 28.8 °F 65% 29.77 in 10.0 mi East 11.5 mph - N/A   Overcast
2:35 PM 40.1 °F 32.4 °F 27.9 °F 62% 29.75 in 10.0 mi East 13.8 mph - N/A   Overcast
2:54 PM 40.3 °F 33.9 °F 27.5 °F 60% 29.75 in 10.0 mi ESE 10.4 mph 19.6 mph N/A   Overcast
3:15 PM 41.2 °F 33.7 °F 25.9 °F 55% 29.74 in 10.0 mi ESE 13.8 mph 25.3 mph N/A   Overcast
3:35 PM 41.0 °F 32.2 °F 26.2 °F 56% 29.73 in 10.0 mi ESE 18.4 mph 32.2 mph N/A   Overcast
3:54 PM 40.3 °F 31.6 °F 28.0 °F 62% 29.73 in 10.0 mi ESE 17.3 mph 25.3 mph N/A   Overcast
4:15 PM 39.4 °F 29.0 °F 28.4 °F 65% 29.73 in 10.0 mi ESE 23.0 mph 28.8 mph N/A   Overcast
4:34 PM 37.9 °F 27.6 °F 29.7 °F 72% 29.72 in 10.0 mi ESE 20.7 mph 29.9 mph N/A Rain Light Rain
4:54 PM 37.0 °F 26.7 °F 30.0 °F 76% 29.70 in 10.0 mi ESE 19.6 mph 27.6 mph N/A   Overcast
5:15 PM 36.0 °F 25.6 °F 30.2 °F 80% 29.67 in 10.0 mi ESE 18.4 mph 27.6 mph N/A   Overcast
5:34 PM 35.2 °F 25.8 °F 30.9 °F 84% 29.65 in 10.0 mi ESE 15.0 mph 26.5 mph N/A   Overcast
5:54 PM 34.9 °F 24.2 °F 31.5 °F 87% 29.64 in 10.0 mi ESE 18.4 mph 25.3 mph N/A   Overcast
6:15 PM 34.9 °F 23.3 °F 31.1 °F 86% 29.61 in 10.0 mi East 21.9 mph 27.6 mph N/A   Overcast
6:34 PM 35.1 °F 23.3 °F 30.7 °F 84% 29.58 in 10.0 mi East 23.0 mph 29.9 mph N/A   Overcast
6:55 PM 34.9 °F 22.7 °F 30.6 °F 84% 29.55 in 10.0 mi East 24.2 mph 31.1 mph N/A   Mostly Cloudy
7:15 PM 35.1 °F 23.5 °F 30.2 °F 82% 29.54 in 10.0 mi ESE 21.9 mph 34.5 mph N/A   Overcast
7:34 PM 35.2 °F 23.5 °F 30.2 °F 82% 29.52 in 10.0 mi ESE 23.0 mph 32.2 mph N/A   Mostly Cloudy
7:55 PM 35.1 °F 23.5 °F 30.2 °F 82% 29.50 in 10.0 mi ESE 21.9 mph 32.2 mph N/A   Mostly Cloudy
8:15 PM 35.1 °F 22.0 °F 30.7 °F 84% 29.45 in 7.0 mi East 28.8 mph 36.8 mph N/A Rain Light Rain
8:34 PM 35.2 °F 22.3 °F 30.9 °F 84% 29.43 in 10.0 mi East 28.8 mph 34.5 mph N/A   Overcast
8:55 PM 34.9 °F 22.5 °F 31.1 °F 86% 29.42 in 5.0 mi ESE 25.3 mph 31.1 mph N/A Snow Light Snow
9:14 PM 34.7 °F 22.2 °F 31.8 °F 89% 29.40 in 10.0 mi ESE 25.3 mph 35.7 mph N/A Snow Light Snow
9:35 PM 34.7 °F 23.1 °F 31.8 °F 89% 29.38 in 7.0 mi ESE 21.9 mph 35.7 mph N/A Snow Light Snow
9:55 PM 34.7 °F 22.2 °F 32.0 °F 90% 29.36 in 10.0 mi ESE 25.3 mph 33.4 mph N/A   Overcast
10:14 PM 34.7 °F 22.8 °F 31.6 °F 89% 29.33 in 10.0 mi ESE 23.0 mph 33.4 mph N/A   Overcast
10:35 PM 35.1 °F 23.5 °F 31.8 °F 88% 29.32 in 10.0 mi ESE 21.9 mph 33.4 mph N/A   Overcast
10:54 PM 35.1 °F 24.1 °F 32.0 °F 89% 29.31 in 10.0 mi ESE 19.6 mph 28.8 mph N/A   Overcast
11:14 PM 35.1 °F 24.1 °F 31.8 °F 88% 29.27 in 10.0 mi ESE 19.6 mph 28.8 mph N/A   Overcast
11:35 PM 35.2 °F 24.4 °F 32.0 °F 88% 29.25 in 10.0 mi ESE 19.6 mph 31.1 mph N/A   Overcast
11:54 PM 35.4 °F 25.3 °F 32.0 °F 87% 29.24 in 10.0 mi ESE 17.3 mph 29.9 mph N/A   Overcast